Change the Weather History Date:

Tuesday, June 10, 2014

  Actual Average Record
Temperature  
Mean Temperature 64 °F -  
Max Temperature 74 °F 69 °F 86 °F (1997)
Min Temperature 55 °F 50 °F 37 °F (2008)
Degree Days  
Heating Degree Days 1    
Growing Degree Days 14 (Base 50)    
Moisture  
Dew Point 46 °F    
Average Humidity 56    
Maximum Humidity 89    
Minimum Humidity 29    
Precipitation  
Precipitation 0.02 in - - ()
Sea Level Pressure  
Sea Level Pressure 29.81 in    
Wind  
Wind Speed 15 mph (West)    
Max Wind Speed 33 mph    
Max Gust Speed 41 mph    
Visibility 10 miles    
Events Rain    
Averages and records for this station are not official NWS values.
T = Trace of Precipitation, MM = Missing Value Source: NWS Daily Summary

Daily Weather History Graph

Daily Weather History Graph

Search for Another Location

Airport or City:

Trip Planner

Search our weather history database for the weather conditions in past years. The results will help you decide how hot, cold, wet, or windy it might be!

Date:

Astronomy

Jun. 10, 2014 Rise Set
Actual Time 5:44 AM CDT 9:45 PM CDT
Civil Twilight 5:02 AM CDT 10:27 PM CDT
Nautical Twilight 4:04 AM CDT 11:25 PM CDT
Astronomical Twilight 2:25 AM CDT 1:06 AM CDT
Moon 7:02 PM CDT (6/10) 4:05 AM CDT (6/10)
Length of Visible Light 17h 24m
Length of Day
16h 01m
Waxing Gibbous, 92% of the Moon is Illuminated
Jun 10
Waxing Gibbous
Jun 12
Full
Jun 19
Last Quarter
Jun 27
New
Jul 5
First Quarter

Hourly Weather History & Observations

Time (CDT) Temp. Dew Point Humidity Pressure Visibility Wind Dir Wind Speed Gust Speed Precip Events Conditions
12:58 AM 65.5 °F 46.8 °F 51% 29.78 in 10.0 mi SW 33.4 mph 41.4 mph 0.00 in   Mostly Cloudy
1:58 AM 59.7 °F 54.0 °F 81% 29.80 in 10.0 mi SSW 20.7 mph - 0.01 in Rain Light Rain
2:05 AM 59.0 °F 53.6 °F 82% 29.78 in 10.0 mi SSW 17.3 mph - N/A Rain Light Rain
2:58 AM 59.4 °F 52.7 °F 79% 29.77 in 10.0 mi South 12.7 mph - 0.01 in   Clear
3:58 AM 59.7 °F 50.9 °F 73% 29.74 in 10.0 mi South 16.1 mph 21.9 mph N/A   Mostly Cloudy
4:58 AM 57.2 °F 51.6 °F 82% 29.75 in 10.0 mi Variable 5.8 mph - N/A   Partly Cloudy
5:58 AM 55.9 °F 51.8 °F 86% 29.78 in 10.0 mi WSW 11.5 mph - N/A   Clear
6:58 AM 55.8 °F 52.7 °F 89% 29.79 in 10.0 mi WSW 10.4 mph - N/A   Clear
7:58 AM 57.7 °F 50.7 °F 77% 29.82 in 10.0 mi WNW 13.8 mph - N/A   Clear
8:58 AM 58.5 °F 45.0 °F 61% 29.83 in 10.0 mi NW 16.1 mph - N/A   Clear
9:58 AM 61.9 °F 44.4 °F 53% 29.85 in 10.0 mi NW 11.5 mph - N/A   Clear
10:58 AM 64.8 °F 45.1 °F 49% 29.85 in 9.0 mi NW 9.2 mph - N/A   Clear
11:58 AM 66.7 °F 44.4 °F 44% 29.84 in 6.0 mi NNW 5.8 mph - N/A   Haze
12:43 PM 68.0 °F 44.6 °F 43% 29.83 in 2.5 mi WNW 12.7 mph - N/A   Haze
12:48 PM 69.8 °F 44.6 °F 40% 29.83 in 10.0 mi WNW 12.7 mph - N/A   Partly Cloudy
12:58 PM 69.4 °F 44.1 °F 40% 29.83 in 10.0 mi NW 8.1 mph - N/A   Scattered Clouds
1:58 PM 70.9 °F 41.9 °F 35% 29.84 in 10.0 mi NW 11.5 mph - N/A   Scattered Clouds
2:58 PM 71.8 °F 39.6 °F 31% 29.83 in 10.0 mi NNW 8.1 mph - N/A   Clear
3:58 PM 73.8 °F 39.6 °F 29% 29.83 in 10.0 mi NNW 8.1 mph - N/A   Mostly Cloudy
4:58 PM 73.2 °F 39.0 °F 29% 29.83 in 10.0 mi Variable 6.9 mph - N/A   Overcast
5:58 PM 71.8 °F 40.1 °F 32% 29.83 in 10.0 mi Calm Calm - N/A   Scattered Clouds
6:58 PM 68.2 °F 44.6 °F 43% 29.82 in 10.0 mi SSE 5.8 mph - 0.00 in   Light Drizzle
7:58 PM 72.3 °F 39.9 °F 31% 29.81 in 10.0 mi SSW 4.6 mph - 0.00 in   Partly Cloudy
8:58 PM 69.3 °F 45.9 °F 43% 29.82 in 10.0 mi West 2.3 mph - N/A   Scattered Clouds
9:58 PM 61.9 °F 46.2 °F 56% 29.82 in 10.0 mi ENE 2.3 mph - N/A   Clear
10:58 PM 57.6 °F 49.8 °F 75% 29.83 in 10.0 mi NNE 6.9 mph - N/A   Clear
11:58 PM 60.1 °F 48.7 °F 66% 29.83 in 10.0 mi SE 4.6 mph - N/A   Clear